Home > Weather > Kempten > Past weeks

Flag for Germany Weather for the Past 2 Weeks in Kempten, Bavaria, Germany

Now
34 °F

Chilly.


Feels Like: 31 °F
Forecast: 37 / 69 °F
Wind: 3 mph from Northeast

Location: Altenstadt Airport

Current Time: May 5, 2016 at 5:45:23 AM

Latest Report: May 5, 2016 at 4:20 AM


Visibility: N/A

Pressure: 30.24 "Hg (27.81 "Hg at 673m altitude)

Humidity: 93%

Dew Point: 32 °F

Location of KemptenLocation

Historic Weather in Kempten — Graph

°F

Kempten Temperature Yesterday

Maximum temperature yesterday: 52 °F (at 4:20 PM)
Minimum temperature yesterday: 36 °F (at 11:20 PM)
Average temperature yesterday: 44 °F

High & Low Weather Summary for the Past Weeks

 TemperatureHumidityPressure
High64 °F (Apr 21, 5:20 PM)100% (Apr 23, 10:20 PM)30.33 "Hg (Apr 23, 10:20 PM)
Low27 °F (Apr 28, 3:20 AM)31% (Apr 30, 5:20 PM)29.59 "Hg (Apr 26, 9:20 AM)
Average42 °F74%29.99 "Hg
* Reported Apr 20 4:20 AM — May 5 4:20 AM, Kempten, Weather by CustomWeather, © 2016

Note: Actual official high and low records may vary slightly from our data, if they occured in-between our weather recording intervals... More about our weather records

Advertising

Kempten Weather History for the Previous 24 Hours

Scroll right to see more
 ConditionsComfort  
Time TempWeatherWind HumidityBarometerVisibility
4:20 AM
Thu, May 5
34 °FChilly.3 mph93%30.24 "HgN/A
3:20 AM34 °FChilly.3 mph93%30.27 "HgN/A
2:20 AM34 °FChilly.1 mph87%30.27 "HgN/A
1:20 AM34 °FChilly.3 mph87%30.27 "HgN/A
12:20 AM36 °FChilly.1 mph81%30.27 "HgN/A
11:20 PM
Wed, May 4
36 °FChilly.1 mph81%30.30 "HgN/A
10:20 PM41 °FQuite cool.1 mph70%30.27 "HgN/A
9:20 PM41 °FQuite cool.1 mph70%30.27 "HgN/A
8:20 PM46 °FPartly sunny.2 mph53%30.27 "HgN/A
7:20 PM48 °FPartly sunny.5 mph50%30.27 "HgN/A
6:20 PM50 °FScattered clouds.5 mph40%30.27 "HgN/A
5:20 PM52 °FScattered clouds.8 mph35%30.27 "HgN/A
4:20 PM52 °FScattered clouds.7 mph38%30.27 "HgN/A
3:20 PM48 °FScattered clouds.7 mph40%30.27 "HgN/A
2:20 PM48 °FScattered clouds.7 mph43%30.30 "HgN/A
1:20 PM48 °FScattered clouds.5 mph46%30.30 "HgN/A
12:20 PM46 °FScattered clouds.7 mph62%30.30 "HgN/A
11:20 AM45 °FScattered clouds.5 mph66%30.30 "HgN/A
10:20 AM45 °FSprinkles. Broken clouds.6 mph76%30.33 "HgN/A
9:20 AM43 °FBroken clouds.6 mph81%30.33 "HgN/A
8:20 AM43 °FBroken clouds.6 mph81%30.30 "HgN/A
7:20 AM39 °FPassing clouds.3 mph93%30.30 "HgN/A
6:20 AM39 °FFog.2 mph93%30.30 "HgN/A
5:20 AM39 °FPartly cloudy.5 mph93%30.30 "HgN/A
Weather by CustomWeather, © 2016

See weather overviewHow to use our weather pages